Location: McFarlands Corners
(41.4117°N, 81.3382°W)
Time: 07:20:15
(UTC+00:00)

Hubble Space Telescope - Pass Details

Date: 26 January 2026
Orbit: 478 x 480 km, 28.5° (Epoch: 10 February)

Event Time Altitude Azimuth Distance (km) Brightness Sun altitude
Rises 00:14:10 0° 226° (SW) 2,512 5.1 -19.0°
Reaches altitude 10° 00:18:02 10° 187° (S) 1,636 3.4 -19.7°
Maximum altitude 00:18:53 11° 174° (S) 1,599 3.2 -19.8°
Enters shadow 00:19:33 10° 163° (SSE) 1,623 3.1 -20.0°
